Location: Baia Mare
(47.6567°N, 23.5850°E)
Time: 12:57:31
(UTC+02:00)

ISS - Pass Details

Date: 23 December 2018
Orbit: 401 x 408 km, 51.6° (Epoch: 16 December)

Event Time Altitude Azimuth Distance (km) Brightness Sun altitude
Rises 07:11:15 0° 207° (SSW) 2,315 0.0 -9.7°
Reaches altitude 10° 07:13:37 10° 191° (S) 1,459 -0.8 -9.4°
Maximum altitude 07:16:10 21° 139° (SE) 972 -0.9 -9.0°
Drops below altitude 10° 07:18:43 10° 88° (E) 1,464 0.1 -8.6°
Sets 07:21:07 0° 72° (ENE) 2,327 0.8 -8.2°
